Weather History for Kerrville, TX

Change the Weather History Date:

Sunday, September 30, 2012

  Actual Average (KHDO) Record (KHDO)
Temperature  
Mean Temperature 70 °F -  
Max Temperature 77 °F 84 °F 96 °F (2008)
Min Temperature 60 °F 61 °F 48 °F (1999)
Cooling Degree Days 4    
Growing Degree Days 20 (Base 50)    
Moisture  
Dew Point 60 °F    
Average Humidity 78    
Maximum Humidity 94    
Minimum Humidity 50    
Precipitation  
Precipitation 0.00 in - - ()
Sea Level Pressure  
Sea Level Pressure 29.91 in    
Wind  
Wind Speed 12 mph (NNW)    
Max Wind Speed 18 mph    
Max Gust Speed 28 mph    
Visibility 10 miles    
Events Rain    
Averages and records for this station are not official NWS values.
T = Trace of Precipitation, MM = Missing Value Source: NWS Daily Summary

Daily Weather History Graph

Daily Weather History Graph

Search for Another Location

Airport:

Trip Planner

Search our weather history database for the weather conditions in past years. The results will help you decide how hot, cold, wet, or windy it might be!

Date:

Astronomy

Sep. 30, 2012 Rise Set
Actual Time 7:29 AM CDT 7:22 PM CDT
Civil Twilight 7:05 AM CDT 7:46 PM CDT
Nautical Twilight 6:37 AM CDT 8:13 PM CDT
Astronomical Twilight 6:09 AM CDT 8:41 PM CDT
Moon 7:35 PM CDT (9/30) 7:55 AM CDT (9/30)
Length of Visible Light 12h 40m
Length of Day
11h 52m
Full, 100% of the Moon is Illuminated
Sep 30
Full
Oct 8
Last Quarter
Oct 15
New
Oct 21
First Quarter
Oct 29
Full

Hourly Weather History & Observations

Time (CDT) Temp. Dew Point Humidity Pressure Visibility Wind Dir Wind Speed Gust Speed Precip Events Conditions
12:15 AM 64.4 °F 60.8 °F 88% 29.90 in 10.0 mi NNW 15.0 mph 19.6 mph N/A   Overcast
12:55 AM 64.4 °F 60.8 °F 88% 29.90 in 10.0 mi NNW 12.7 mph 19.6 mph N/A   Overcast
1:15 AM 64.4 °F 60.8 °F 88% 29.89 in 10.0 mi NNW 15.0 mph 24.2 mph N/A   Overcast
1:35 AM 64.4 °F 60.8 °F 88% 29.90 in 10.0 mi NNW 12.7 mph 21.9 mph N/A   Overcast
1:55 AM 64.4 °F 60.8 °F 88% 29.89 in 10.0 mi NNW 13.8 mph 20.7 mph N/A   Overcast
2:15 AM 64.4 °F 60.8 °F 88% 29.90 in 10.0 mi NNW 12.7 mph 18.4 mph N/A   Overcast
2:35 AM 64.4 °F 60.8 °F 88% 29.88 in 10.0 mi NNW 13.8 mph 19.6 mph N/A   Overcast
2:55 AM 64.4 °F 60.8 °F 88% 29.88 in 10.0 mi NNW 10.4 mph 16.1 mph N/A   Overcast
3:15 AM 64.4 °F 60.8 °F 88% 29.88 in 10.0 mi NNW 13.8 mph 21.9 mph N/A   Overcast
3:35 AM 62.6 °F 59.0 °F 88% 29.88 in 10.0 mi NNW 16.1 mph 23.0 mph N/A   Overcast
3:55 AM 62.6 °F 59.0 °F 88% 29.87 in 10.0 mi NNW 18.4 mph 27.6 mph N/A   Overcast
4:15 AM 62.6 °F 59.0 °F 88% 29.87 in 10.0 mi NNW 12.7 mph 26.5 mph N/A   Overcast
4:35 AM 64.4 °F 59.0 °F 83% 29.87 in 10.0 mi NNW 15.0 mph 19.6 mph N/A   Overcast
4:55 AM 64.4 °F 59.0 °F 83% 29.87 in 10.0 mi NNW 16.1 mph 23.0 mph N/A   Overcast
5:15 AM 62.6 °F 60.8 °F 94% 29.88 in 10.0 mi NNW 11.5 mph 20.7 mph N/A   Overcast
5:35 AM 62.6 °F 60.8 °F 94% 29.88 in 10.0 mi NNW 12.7 mph 17.3 mph N/A   Overcast
5:55 AM 62.6 °F 60.8 °F 94% 29.88 in 10.0 mi NNW 13.8 mph 19.6 mph N/A   Overcast
6:15 AM 62.6 °F 60.8 °F 94% 29.88 in 10.0 mi NNW 12.7 mph 18.4 mph N/A   Overcast
6:35 AM 62.6 °F 60.8 °F 94% 29.88 in 10.0 mi NNW 11.5 mph 17.3 mph N/A   Overcast
6:55 AM 62.6 °F 60.8 °F 94% 29.89 in 4.0 mi NNW 10.4 mph - N/A   Light Drizzle
7:15 AM 62.6 °F 60.8 °F 94% 29.90 in 10.0 mi NNW 11.5 mph 18.4 mph N/A   Overcast
7:35 AM 62.6 °F 60.8 °F 94% 29.91 in 10.0 mi NW 9.2 mph - N/A   Overcast
7:55 AM 62.6 °F 60.8 °F 94% 29.91 in 10.0 mi NNW 13.8 mph 19.6 mph N/A   Overcast
8:15 AM 62.6 °F 59.0 °F 88% 29.92 in 10.0 mi NNW 11.5 mph 19.6 mph N/A   Overcast
8:35 AM 62.6 °F 59.0 °F 88% 29.93 in 5.0 mi NNW 10.4 mph - N/A   Overcast
8:55 AM 64.4 °F 60.8 °F 88% 29.94 in 10.0 mi NNW 11.5 mph - N/A   Overcast
9:15 AM 64.4 °F 60.8 °F 88% 29.94 in 10.0 mi NNW 10.4 mph 17.3 mph N/A   Overcast
9:35 AM 64.4 °F 60.8 °F 88% 29.95 in 10.0 mi NNW 11.5 mph - N/A   Overcast
9:55 AM 64.4 °F 60.8 °F 88% 29.95 in 10.0 mi NNW 11.5 mph 17.3 mph N/A   Overcast
10:15 AM 64.4 °F 59.0 °F 83% 29.96 in 10.0 mi NNW 12.7 mph - N/A   Overcast
10:35 AM 64.4 °F 60.8 °F 88% 29.96 in 10.0 mi NNW 11.5 mph - N/A   Overcast
10:55 AM 68.0 °F 62.6 °F 83% 29.96 in 10.0 mi NNW 11.5 mph - N/A   Overcast
11:15 AM 68.0 °F 60.8 °F 78% 29.96 in 10.0 mi NNW 11.5 mph 20.7 mph N/A   Overcast
11:35 AM 69.8 °F 60.8 °F 73% 29.96 in 10.0 mi NNW 15.0 mph 19.6 mph N/A   Overcast
11:55 AM 69.8 °F 60.8 °F 73% 29.96 in 10.0 mi NNW 12.7 mph 20.7 mph N/A   Overcast
12:15 PM 69.8 °F 60.8 °F 73% 29.95 in 10.0 mi NNW 12.7 mph 18.4 mph N/A   Overcast
12:35 PM 71.6 °F 60.8 °F 69% 29.95 in 10.0 mi NNW 13.8 mph 19.6 mph N/A   Overcast
12:55 PM 71.6 °F 60.8 °F 69% 29.94 in 10.0 mi NNW 17.3 mph 24.2 mph N/A   Overcast
1:15 PM 73.4 °F 60.8 °F 65% 29.93 in 10.0 mi NNW 15.0 mph 23.0 mph N/A   Mostly Cloudy
1:35 PM 71.6 °F 59.0 °F 64% 29.93 in 10.0 mi NNW 17.3 mph 24.2 mph N/A   Overcast
1:55 PM 73.4 °F 60.8 °F 65% 29.92 in 10.0 mi NNW 16.1 mph - N/A   Mostly Cloudy
2:15 PM 77.0 °F 60.8 °F 57% 29.91 in 10.0 mi NNW 16.1 mph 21.9 mph N/A   Mostly Cloudy
2:35 PM 77.0 °F 60.8 °F 57% 29.90 in 10.0 mi North 18.4 mph 21.9 mph N/A   Mostly Cloudy
2:55 PM 75.2 °F 60.8 °F 61% 29.90 in 10.0 mi NNW 18.4 mph 24.2 mph N/A   Overcast
3:15 PM 77.0 °F 60.8 °F 57% 29.89 in 10.0 mi North 16.1 mph 20.7 mph N/A   Mostly Cloudy
3:35 PM 77.0 °F 59.0 °F 54% 29.88 in 10.0 mi North 18.4 mph 24.2 mph N/A   Overcast
3:55 PM 77.0 °F 60.8 °F 57% 29.88 in 10.0 mi NNW 10.4 mph 21.9 mph N/A   Scattered Clouds
4:15 PM 77.0 °F 59.0 °F 54% 29.87 in 10.0 mi NNW 16.1 mph 21.9 mph N/A   Scattered Clouds
4:35 PM 77.0 °F 59.0 °F 54% 29.87 in 10.0 mi North 17.3 mph 27.6 mph N/A   Scattered Clouds
4:55 PM 77.0 °F 57.2 °F 50% 29.87 in 10.0 mi NNW 13.8 mph 19.6 mph N/A   Scattered Clouds
5:15 PM 77.0 °F 59.0 °F 54% 29.87 in 10.0 mi North 12.7 mph 18.4 mph N/A   Scattered Clouds
5:35 PM 77.0 °F 60.8 °F 57% 29.87 in 10.0 mi North 9.2 mph 16.1 mph N/A   Scattered Clouds
5:55 PM 77.0 °F 59.0 °F 54% 29.86 in 10.0 mi NW 13.8 mph 18.4 mph N/A   Scattered Clouds
6:15 PM 77.0 °F 59.0 °F 54% 29.87 in 10.0 mi NNW 10.4 mph 17.3 mph N/A   Scattered Clouds
6:35 PM 77.0 °F 57.2 °F 50% 29.87 in 7.0 mi NNW 13.8 mph 17.3 mph N/A   Clear
6:55 PM 75.2 °F 59.0 °F 57% 29.87 in 5.0 mi North 9.2 mph - N/A   Haze
7:15 PM 73.4 °F 59.0 °F 61% 29.88 in 7.0 mi NNW 6.9 mph - N/A   Clear
7:35 PM 71.6 °F 59.0 °F 64% 29.88 in 7.0 mi NE 3.5 mph - N/A   Clear
7:55 PM 71.6 °F 60.8 °F 69% 29.89 in 10.0 mi Calm Calm - N/A   Clear
8:15 PM 68.0 °F 60.8 °F 78% 29.90 in 10.0 mi Calm Calm - N/A   Scattered Clouds
8:35 PM 68.0 °F 60.8 °F 78% 29.90 in 10.0 mi Calm Calm - N/A   Scattered Clouds
8:55 PM 68.0 °F 60.8 °F 78% 29.91 in 10.0 mi Calm Calm - N/A   Clear
9:15 PM 64.4 °F 59.0 °F 83% 29.92 in 10.0 mi Calm Calm - N/A   Scattered Clouds
9:35 PM 64.4 °F 60.8 °F 88% 29.94 in 5.0 mi NNE 9.2 mph - N/A Rain Light Rain
9:55 PM 66.2 °F 60.8 °F 83% 29.94 in 10.0 mi NE 6.9 mph - N/A Rain Rain
10:15 PM 64.4 °F 60.8 °F 88% 29.95 in 10.0 mi Calm Calm - N/A   Overcast
10:35 PM 64.4 °F 60.8 °F 88% 29.95 in 10.0 mi Calm Calm - N/A   Scattered Clouds
10:55 PM 64.4 °F 60.8 °F 88% 29.94 in 10.0 mi Calm Calm - N/A   Clear
11:35 PM 62.6 °F 59.0 °F 88% 29.94 in 10.0 mi Calm Calm - N/A   Clear
11:55 PM 60.8 °F 59.0 °F 94% 29.94 in 10.0 mi Calm Calm - N/A   Clear